| time (UTC) | temp F | wind direction | speed MPH | gust MPH | rain 1hr in | rain 24hr in | rain mn in | humidity % | barometer mb |
| 20260506013002 | 53 | 287 | 0.0 | 0.0 | 0.00 | 0.00 | 0.05 | 90 | |
| 20260506011502 | 54 | 340 | 0.0 | 0.0 | 0.00 | 0.00 | 0.05 | 90 | |
| 20260506010002 | 54 | 285 | 3.0 | 0.0 | 0.00 | 0.00 | 0.05 | 90 | |
| 20260506004503 | 54 | 345 | 0.0 | 0.0 | 0.00 | 0.00 | 0.05 | 90 | |
| 20260506003002 | 55 | 290 | 2.0 | 0.0 | 0.00 | 0.00 | 0.05 | 90 | |
| 20260506001502 | 55 | 305 | 2.0 | 0.0 | 0.00 | 0.00 | 0.05 | 90 | |
| 20260506000003 | 55 | 245 | 2.0 | 0.0 | 0.00 | 0.00 | 0.05 | 90 | |
| 20260505234502 | 55 | 7 | 3.0 | 0.0 | 0.00 | 0.00 | 0.05 | 90 | |
| 20260505233003 | 55 | 255 | 3.0 | 0.0 | 0.00 | 0.00 | 0.05 | 90 | |
| 20260505231502 | 55 | 210 | 2.0 | 0.0 | 0.00 | 0.00 | 0.05 | 90 | |
| 20260505230002 | 55 | 260 | 2.0 | 0.0 | 0.00 | 0.00 | 0.02 | 91 | |
| 20260505224502 | 55 | 212 | 4.0 | 0.0 | 0.00 | 0.00 | 0.00 | 91 | |
| 20260505223002 | 55 | 325 | 0.0 | 0.0 | 0.00 | 0.00 | 0.00 | 91 | |
| 20260505221501 | 55 | 120 | 0.0 | 0.0 | 0.00 | 0.00 | 0.00 | 91 | |
| 20260505220003 | 55 | 2 | 0.0 | 0.0 | 0.00 | 0.00 | 0.51 | 91 | |
| 20260505214502 | 55 | 100 | 0.0 | 0.0 | 0.00 | 0.00 | 0.51 | 91 | |
| 20260505213002 | 55 | 332 | 0.0 | 0.0 | 0.00 | 0.00 | 0.51 | 91 | |
| 20260505211503 | 55 | 337 | 0.0 | 0.0 | 0.00 | 0.00 | 0.51 | 91 | |
| 20260505210003 | 55 | 322 | 0.0 | 0.0 | 0.00 | 0.00 | 0.51 | 91 | |
| 20260505204503 | 55 | 317 | 0.0 | 0.0 | 0.00 | 0.00 | 0.51 | 91 | |
| 20260505203002 | 55 | 327 | 0.0 | 0.0 | 0.00 | 0.00 | 0.51 | 90 | |
| 20260505201503 | 55 | 332 | 0.0 | 0.0 | 0.00 | 0.00 | 0.51 | 90 | |
| 20260505200001 | 56 | 345 | 0.0 | 0.0 | 0.00 | 0.00 | 0.51 | 90 | |
| 20260505194501 | 56 | 345 | 0.0 | 0.0 | 0.00 | 0.00 | 0.51 | 90 | |
| 20260505193003 | 57 | 322 | 0.0 | 0.0 | 0.00 | 0.00 | 0.51 | 90 | |
| 20260505191502 | 57 | 335 | 0.0 | 0.0 | 0.00 | 0.00 | 0.51 | 89 | |
| 20260505190003 | 57 | 337 | 0.0 | 0.0 | 0.00 | 0.00 | 0.51 | 89 | |
| 20260505184502 | 57 | 225 | 0.0 | 0.0 | 0.00 | 0.00 | 0.51 | 89 | |
| 20260505183002 | 57 | 247 | 0.0 | 0.0 | 0.00 | 0.00 | 0.51 | 89 | |
| 20260505181502 | 57 | 180 | 0.0 | 0.0 | 0.00 | 0.00 | 0.51 | 89 | |
| 20260505180003 | 57 | 170 | 0.0 | 0.0 | 0.00 | 0.00 | 0.50 | 89 | |
| 20260505174502 | 57 | 137 | 0.0 | 0.0 | 0.00 | 0.00 | 0.49 | 88 | |
| 20260505173001 | 57 | 132 | 0.0 | 0.0 | 0.00 | 0.00 | 0.49 | 88 | |
| 20260505171502 | 57 | 142 | 0.0 | 0.0 | 0.00 | 0.00 | 0.48 | 88 | |
| 20260505170003 | 57 | 120 | 0.0 | 0.0 | 0.00 | 0.00 | 0.46 | 88 | |
| 20260505164502 | 57 | 317 | 6.0 | 0.0 | 0.00 | 0.00 | 0.44 | 87 | |
| 20260505163002 | 57 | 230 | 8.0 | 0.0 | 0.00 | 0.00 | 0.42 | 87 | |
| 20260505161503 | 57 | 232 | 6.0 | 0.0 | 0.00 | 0.00 | 0.38 | 86 | |
| 20260505153003 | 58 | 242 | 7.0 | 0.0 | 0.00 | 0.00 | 0.12 | 79 | |
| 20260505151502 | 61 | 240 | 8.0 | 0.0 | 0.00 | 0.00 | 0.06 | 71 | |
| 20260505124503 | 76 | 335 | 2.0 | 0.0 | 0.00 | 0.00 | 0.00 | 38 | |
| 20260505123002 | 76 | 172 | 4.0 | 0.0 | 0.00 | 0.00 | 0.00 | 38 | |
| 20260505121502 | 77 | 202 | 3.0 | 0.0 | 0.00 | 0.00 | 0.00 | 38 | |
| 20260505120002 | 78 | 220 | 3.0 | 0.0 | 0.00 | 0.00 | 0.00 | 37 | |
| 20260505114503 | 75 | 107 | 6.0 | 0.0 | 0.00 | 0.00 | 0.00 | 40 | |
| 20260505113003 | 75 | 105 | 3.0 | 0.0 | 0.00 | 0.00 | 0.00 | 41 | |
| 20260505111502 | 75 | 177 | 5.0 | 0.0 | 0.00 | 0.00 | 0.00 | 42 | |
| 20260505101503 | 71 | 137 | 8.0 | 0.0 | 0.00 | 0.00 | 0.00 | 49 | |
| 20260505100002 | 72 | 107 | 3.0 | 0.0 | 0.00 | 0.00 | 0.00 | 51 | |
| 20260505094502 | 72 | 197 | 0.0 | 0.0 | 0.00 | 0.00 | 0.00 | 51 | |
| 20260505093002 | 71 | 327 | 0.0 | 0.0 | 0.00 | 0.00 | 0.00 | 52 | |
| 20260505091503 | 70 | 220 | 0.0 | 0.0 | 0.00 | 0.00 | 0.00 | 53 | |
| 20260505090002 | 69 | 255 | 0.0 | 0.0 | 0.00 | 0.00 | 0.00 | 56 | |
| 20260505084503 | 68 | 165 | 0.0 | 0.0 | 0.00 | 0.00 | 0.00 | 58 | |
| 20260505083002 | 67 | 155 | 0.0 | 0.0 | 0.00 | 0.00 | 0.00 | 59 | |
| 20260505081502 | 67 | 175 | 0.0 | 0.0 | 0.00 | 0.00 | 0.00 | 60 | |
| 20260505080002 | 66 | 205 | 0.0 | 0.0 | 0.00 | 0.00 | 0.00 | 61 | |
| 20260505074503 | 65 | 232 | 0.0 | 0.0 | 0.00 | 0.00 | 0.00 | 62 | |
| 20260505073003 | 65 | 192 | 0.0 | 0.0 | 0.00 | 0.00 | 0.00 | 62 | |
| 20260505071502 | 63 | 317 | 0.0 | 0.0 | 0.00 | 0.00 | 0.00 | 66 | |
| 20260505070002 | 61 | 282 | 0.0 | 0.0 | 0.00 | 0.00 | 0.00 | 69 | |
| 20260505064502 | 60 | 230 | 0.0 | 0.0 | 0.00 | 0.00 | 0.00 | 70 | |
| 20260505063002 | 60 | 260 | 0.0 | 0.0 | 0.00 | 0.00 | 0.00 | 70 | |
| 20260505061502 | 59 | 190 | 0.0 | 0.0 | 0.00 | 0.00 | 0.00 | 75 | |
| 20260505060002 | 58 | 220 | 0.0 | 0.0 | 0.00 | 0.00 | 0.00 | 77 | |
| 20260505054502 | 57 | 210 | 0.0 | 0.0 | 0.00 | 0.00 | 0.00 | 78 | |
| 20260505053002 | 57 | 327 | 0.0 | 0.0 | 0.00 | 0.00 | 0.00 | 79 | |
| 20260505051502 | 57 | 160 | 0.0 | 0.0 | 0.00 | 0.00 | 0.00 | 80 | |
| 20260505041502 | 55 | 350 | 0.0 | 0.0 | 0.00 | 0.00 | 0.00 | 82 | |
| 20260505040002 | 56 | 330 | 0.0 | 0.0 | 0.00 | 0.00 | 0.00 | 82 | |
| 20260505034502 | 56 | 342 | 0.0 | 0.0 | 0.00 | 0.00 | 0.00 | 82 | |
| 20260505033002 | 56 | 315 | 0.0 | 0.0 | 0.00 | 0.00 | 0.00 | 80 | |
| 20260505031503 | 56 | 315 | 0.0 | 0.0 | 0.00 | 0.00 | 0.00 | 80 | |
| 20260505030003 | 56 | 320 | 0.0 | 0.0 | 0.00 | 0.00 | 0.00 | 81 | |
| 20260505024502 | 56 | 325 | 0.0 | 0.0 | 0.00 | 0.00 | 0.00 | 81 | |
| 20260505023002 | 57 | 345 | 0.0 | 0.0 | 0.00 | 0.00 | 0.00 | 81 | |
| 20260505021502 | 57 | 145 | 0.0 | 0.0 | 0.00 | 0.00 | 0.00 | 80 | |
| 20260505020003 | 57 | 187 | 0.0 | 0.0 | 0.00 | 0.00 | 0.00 | 81 | |
| 20260505014503 | 57 | 200 | 0.0 | 0.0 | 0.00 | 0.00 | 0.00 | 81 |